User: anonymous   Login
Location: Columbia
(38.9520°N, 92.3340°W)
Time: 08:19:46
(UTC-05:00)
Language:

Cosmos 2100 Rocket - Orbit

View from above orbital plane
View from above orbital plane
View from above satellite
View from above satellite

Ground track
Ground track

The orbit data is extracted from the following two-line orbital elements,

1 20805U 90083B   14303.93183883  .00000048  00000-0  34038-4 0  8532
2 20805 082.9397 053.8075 0030796 193.2496 306.0116 13.75733385211367
Epoch (UTC): 30 October 2014 22:21:50
Eccentricity: 0.0030796
inclination: 82.9397°
perigee height: 956 km
apogee height: 1002 km
right ascension of ascending node: 53.8075°
argument of perigee: 193.2496°
revolutions per day: 13.75733385
mean anomaly at epoch: 306.0116°
orbit number at epoch: 21136

The dashed part of the orbit path shows where the satellite is in the earth's shadow,  

DLR